Index of /20260413/WXO-DD/model_gdps/15km/12/225
Name Last modified Size Description
Parent Directory -
20260413T12Z_MSC_GDPS_AirTemp_AGL-120m_LatLon0.15_PT225H.grib2 2026-04-13 16:57 922K
20260413T12Z_MSC_GDPS_AirTemp_AGL-2m_LatLon0.15_PT225H.grib2 2026-04-13 16:57 1.0M
20260413T12Z_MSC_GDPS_AirTemp_AGL-40m_LatLon0.15_PT225H.grib2 2026-04-13 16:57 826K
20260413T12Z_MSC_GDPS_AirTemp_AGL-80m_LatLon0.15_PT225H.grib2 2026-04-13 16:57 933K
20260413T12Z_MSC_GDPS_AirTemp_IsbL-0001_LatLon0.15_PT225H.grib2 2026-04-13 16:57 705K
20260413T12Z_MSC_GDPS_AirTemp_IsbL-0005_LatLon0.15_PT225H.grib2 2026-04-13 16:57 744K
20260413T12Z_MSC_GDPS_AirTemp_IsbL-0500_LatLon0.15_PT225H.grib2 2026-04-13 16:57 1.0M
20260413T12Z_MSC_GDPS_AirTemp_IsbL-0700_LatLon0.15_PT225H.grib2 2026-04-13 16:57 960K
20260413T12Z_MSC_GDPS_AirTemp_IsbL-0850_LatLon0.15_PT225H.grib2 2026-04-13 16:57 1.1M
20260413T12Z_MSC_GDPS_AirTemp_IsbL-0925_LatLon0.15_PT225H.grib2 2026-04-13 16:57 1.1M
20260413T12Z_MSC_GDPS_AirTemp_IsbL-1000_LatLon0.15_PT225H.grib2 2026-04-13 16:57 1.1M
20260413T12Z_MSC_GDPS_Albedo_Sfc_LatLon0.15_PT225H.grib2 2026-04-13 16:57 246K
20260413T12Z_MSC_GDPS_ConvectivePrecip-Accum_Sfc_LatLon0.15_PT225H.grib2 2026-04-13 16:57 3.7M
20260413T12Z_MSC_GDPS_DewPointDepression_AGL-2m_LatLon0.15_PT225H.grib2 2026-04-13 16:57 760K
20260413T12Z_MSC_GDPS_DewPointDepression_IsbL-0500_LatLon0.15_PT225H.grib2 2026-04-13 16:57 1.0M
20260413T12Z_MSC_GDPS_DewPointDepression_IsbL-0700_LatLon0.15_PT225H.grib2 2026-04-13 16:57 1.1M
20260413T12Z_MSC_GDPS_DewPointDepression_IsbL-0850_LatLon0.15_PT225H.grib2 2026-04-13 16:57 1.2M
20260413T12Z_MSC_GDPS_DewPointDepression_IsbL-0925_LatLon0.15_PT225H.grib2 2026-04-13 16:57 1.0M
20260413T12Z_MSC_GDPS_DewPointDepression_IsbL-1000_LatLon0.15_PT225H.grib2 2026-04-13 16:57 1.0M
20260413T12Z_MSC_GDPS_DewPoint_AGL-2m_LatLon0.15_PT225H.grib2 2026-04-13 16:57 614K
20260413T12Z_MSC_GDPS_DownwardLongwaveRadiationFlux-Accum_Sfc_LatLon0.15_PT225H.grib2 2026-04-13 16:57 730K
20260413T12Z_MSC_GDPS_DownwardShortwaveRadiationFlux-Accum_Sfc_LatLon0.15_PT225H.grib2 2026-04-13 16:57 926K
20260413T12Z_MSC_GDPS_FreezingRain-Accum_Sfc_LatLon0.15_PT225H.grib2 2026-04-13 16:57 382K
20260413T12Z_MSC_GDPS_GeopotentialHeight_IsbL-0001_LatLon0.15_PT225H.grib2 2026-04-13 16:57 396K
20260413T12Z_MSC_GDPS_GeopotentialHeight_IsbL-0005_LatLon0.15_PT225H.grib2 2026-04-13 16:57 499K
20260413T12Z_MSC_GDPS_GeopotentialHeight_IsbL-0500_LatLon0.15_PT225H.grib2 2026-04-13 16:57 536K
20260413T12Z_MSC_GDPS_GeopotentialHeight_IsbL-0700_LatLon0.15_PT225H.grib2 2026-04-13 16:57 691K
20260413T12Z_MSC_GDPS_GeopotentialHeight_IsbL-0850_LatLon0.15_PT225H.grib2 2026-04-13 16:57 716K
20260413T12Z_MSC_GDPS_GeopotentialHeight_IsbL-0925_LatLon0.15_PT225H.grib2 2026-04-13 16:57 737K
20260413T12Z_MSC_GDPS_GeopotentialHeight_IsbL-1000_LatLon0.15_PT225H.grib2 2026-04-13 16:57 795K
20260413T12Z_MSC_GDPS_IcePellets-Accum_Sfc_LatLon0.15_PT225H.grib2 2026-04-13 16:57 256K
20260413T12Z_MSC_GDPS_LatentHeatNetFlux_Sfc_LatLon0.15_PT225H.grib2 2026-04-13 16:57 662K
20260413T12Z_MSC_GDPS_O3MixingRatio_LatLon0.15_PT225H.grib2 2026-04-13 17:08 2.0M
20260413T12Z_MSC_GDPS_O3_EAtm_LatLon0.15_PT225H.grib2 2026-04-13 17:08 2.5M
20260413T12Z_MSC_GDPS_PlanetaryBoundaryLayerHeight_Sfc_LatLon0.15_PT225H.grib2 2026-04-13 16:57 2.4M
20260413T12Z_MSC_GDPS_Precip-Accum_Sfc_LatLon0.15_PT225H.grib2 2026-04-13 16:57 5.1M
20260413T12Z_MSC_GDPS_PrecipRate_Sfc_LatLon0.15_PT225H.grib2 2026-04-13 16:57 3.0M
20260413T12Z_MSC_GDPS_Pressure_MSL_LatLon0.15_PT225H.grib2 2026-04-13 16:57 731K
20260413T12Z_MSC_GDPS_Pressure_Sfc_LatLon0.15_PT225H.grib2 2026-04-13 16:57 1.1M
20260413T12Z_MSC_GDPS_RadiativeTemp_Sfc_LatLon0.15_PT225H.grib2 2026-04-13 16:57 667K
20260413T12Z_MSC_GDPS_Rain-Accum_Sfc_LatLon0.15_PT225H.grib2 2026-04-13 16:57 4.2M
20260413T12Z_MSC_GDPS_RelativeHumidity_AGL-2m_LatLon0.15_PT225H.grib2 2026-04-13 16:57 1.0M
20260413T12Z_MSC_GDPS_Runoff-Accum_Sfc_LatLon0.15_PT225H.grib2 2026-04-13 16:57 114K
20260413T12Z_MSC_GDPS_SensibleHeatNetFlux_Sfc_LatLon0.15_PT225H.grib2 2026-04-13 16:57 605K
20260413T12Z_MSC_GDPS_Snow-Accum_Sfc_LatLon0.15_PT225H.grib2 2026-04-13 16:57 2.0M
20260413T12Z_MSC_GDPS_SnowDepth_Sfc_LatLon0.15_PT225H.grib2 2026-04-13 16:57 1.8M
20260413T12Z_MSC_GDPS_SoilTemp_DBS-0to10cm_LatLon0.15_PT225H.grib2 2026-04-13 16:57 514K
20260413T12Z_MSC_GDPS_SoilTemp_Sfc_LatLon0.15_PT225H.grib2 2026-04-13 16:57 580K
20260413T12Z_MSC_GDPS_SoilVolumetricWaterContent_DBS-0to10cm_LatLon0.15_PT225H.grib2 2026-04-13 16:57 554K
20260413T12Z_MSC_GDPS_SoilVolumetricWaterContent_DBS-0to1cm_LatLon0.15_PT225H.grib2 2026-04-13 16:57 650K
20260413T12Z_MSC_GDPS_SpecificHumidity_AGL-120m_LatLon0.15_PT225H.grib2 2026-04-13 16:57 1.1M
20260413T12Z_MSC_GDPS_SpecificHumidity_AGL-2m_LatLon0.15_PT225H.grib2 2026-04-13 16:57 1.2M
20260413T12Z_MSC_GDPS_SpecificHumidity_AGL-40m_LatLon0.15_PT225H.grib2 2026-04-13 16:57 1.1M
20260413T12Z_MSC_GDPS_SpecificHumidity_AGL-80m_LatLon0.15_PT225H.grib2 2026-04-13 16:57 1.1M
20260413T12Z_MSC_GDPS_SpecificHumidity_IsbL-0001_LatLon0.15_PT225H.grib2 2026-04-13 16:57 1.0M
20260413T12Z_MSC_GDPS_SpecificHumidity_IsbL-0005_LatLon0.15_PT225H.grib2 2026-04-13 16:57 1.0M
20260413T12Z_MSC_GDPS_SpecificHumidity_IsbL-0500_LatLon0.15_PT225H.grib2 2026-04-13 16:57 1.5M
20260413T12Z_MSC_GDPS_SpecificHumidity_IsbL-0700_LatLon0.15_PT225H.grib2 2026-04-13 16:57 1.6M
20260413T12Z_MSC_GDPS_SpecificHumidity_IsbL-0850_LatLon0.15_PT225H.grib2 2026-04-13 16:57 1.9M
20260413T12Z_MSC_GDPS_SpecificHumidity_IsbL-0925_LatLon0.15_PT225H.grib2 2026-04-13 16:57 1.6M
20260413T12Z_MSC_GDPS_SpecificHumidity_IsbL-1000_LatLon0.15_PT225H.grib2 2026-04-13 16:57 1.5M
20260413T12Z_MSC_GDPS_SpecificHumidity_Sfc_LatLon0.15_PT225H.grib2 2026-04-13 16:57 633K
20260413T12Z_MSC_GDPS_Thickness_IsbL-0850to0700_LatLon0.15_PT225H.grib2 2026-04-13 16:57 473K
20260413T12Z_MSC_GDPS_Thickness_IsbL-1000to0500_LatLon0.15_PT225H.grib2 2026-04-13 16:57 380K
20260413T12Z_MSC_GDPS_Thickness_IsbL-1000to0850_LatLon0.15_PT225H.grib2 2026-04-13 16:57 495K
20260413T12Z_MSC_GDPS_TotalCloudCover_Sfc_LatLon0.15_PT225H.grib2 2026-04-13 16:57 833K
20260413T12Z_MSC_GDPS_UVIndex-ClearSky_Sfc_LatLon0.15_PT225H.grib2 2026-04-13 17:08 1.0M
20260413T12Z_MSC_GDPS_UVIndex_Sfc_LatLon0.15_PT225H.grib2 2026-04-13 17:08 1.5M
20260413T12Z_MSC_GDPS_UpwardLongwaveRadiationFlux_NTAtm_LatLon0.15_PT225H.grib2 2026-04-13 16:57 845K
20260413T12Z_MSC_GDPS_VerticalVelocity_IsbL-0500_LatLon0.15_PT225H.grib2 2026-04-13 16:57 1.0M
20260413T12Z_MSC_GDPS_VerticalVelocity_IsbL-0700_LatLon0.15_PT225H.grib2 2026-04-13 16:57 1.1M
20260413T12Z_MSC_GDPS_VerticalVelocity_IsbL-0850_LatLon0.15_PT225H.grib2 2026-04-13 16:57 1.6M
20260413T12Z_MSC_GDPS_WindDir_AGL-10m_LatLon0.15_PT225H.grib2 2026-04-13 16:57 1.3M
20260413T12Z_MSC_GDPS_WindDir_AGL-120m_LatLon0.15_PT225H.grib2 2026-04-13 16:57 1.4M
20260413T12Z_MSC_GDPS_WindDir_AGL-40m_LatLon0.15_PT225H.grib2 2026-04-13 16:57 1.4M
20260413T12Z_MSC_GDPS_WindDir_AGL-80m_LatLon0.15_PT225H.grib2 2026-04-13 16:57 1.4M
20260413T12Z_MSC_GDPS_WindDir_IsbL-0001_LatLon0.15_PT225H.grib2 2026-04-13 16:57 653K
20260413T12Z_MSC_GDPS_WindDir_IsbL-0005_LatLon0.15_PT225H.grib2 2026-04-13 16:57 807K
20260413T12Z_MSC_GDPS_WindDir_IsbL-0500_LatLon0.15_PT225H.grib2 2026-04-13 16:57 1.3M
20260413T12Z_MSC_GDPS_WindDir_IsbL-0700_LatLon0.15_PT225H.grib2 2026-04-13 16:57 1.6M
20260413T12Z_MSC_GDPS_WindDir_IsbL-0850_LatLon0.15_PT225H.grib2 2026-04-13 16:57 1.9M
20260413T12Z_MSC_GDPS_WindDir_IsbL-0925_LatLon0.15_PT225H.grib2 2026-04-13 16:57 2.0M
20260413T12Z_MSC_GDPS_WindDir_IsbL-1000_LatLon0.15_PT225H.grib2 2026-04-13 16:57 2.1M
20260413T12Z_MSC_GDPS_WindGust-Max_AGL-10m_LatLon0.15_PT225H.grib2 2026-04-13 16:57 2.2M
20260413T12Z_MSC_GDPS_WindGust-Min_AGL-10m_LatLon0.15_PT225H.grib2 2026-04-13 16:57 2.2M
20260413T12Z_MSC_GDPS_WindGust_AGL-10m_LatLon0.15_PT225H.grib2 2026-04-13 16:57 2.2M
20260413T12Z_MSC_GDPS_WindSpeed_AGL-10m_LatLon0.15_PT225H.grib2 2026-04-13 16:57 1.1M
20260413T12Z_MSC_GDPS_WindSpeed_AGL-120m_LatLon0.15_PT225H.grib2 2026-04-13 16:57 1.2M
20260413T12Z_MSC_GDPS_WindSpeed_AGL-40m_LatLon0.15_PT225H.grib2 2026-04-13 16:57 1.2M
20260413T12Z_MSC_GDPS_WindSpeed_AGL-80m_LatLon0.15_PT225H.grib2 2026-04-13 16:57 1.2M
20260413T12Z_MSC_GDPS_WindSpeed_IsbL-0001_LatLon0.15_PT225H.grib2 2026-04-13 16:57 632K
20260413T12Z_MSC_GDPS_WindSpeed_IsbL-0005_LatLon0.15_PT225H.grib2 2026-04-13 16:57 681K
20260413T12Z_MSC_GDPS_WindSpeed_IsbL-0500_LatLon0.15_PT225H.grib2 2026-04-13 16:57 1.1M
20260413T12Z_MSC_GDPS_WindSpeed_IsbL-0700_LatLon0.15_PT225H.grib2 2026-04-13 16:57 1.5M
20260413T12Z_MSC_GDPS_WindSpeed_IsbL-0850_LatLon0.15_PT225H.grib2 2026-04-13 16:57 1.8M
20260413T12Z_MSC_GDPS_WindSpeed_IsbL-0925_LatLon0.15_PT225H.grib2 2026-04-13 16:57 1.9M
20260413T12Z_MSC_GDPS_WindSpeed_IsbL-1000_LatLon0.15_PT225H.grib2 2026-04-13 16:57 1.9M
20260413T12Z_MSC_GDPS_WindU_AGL-10m_LatLon0.15_PT225H.grib2 2026-04-13 16:57 1.6M
20260413T12Z_MSC_GDPS_WindU_AGL-120m_LatLon0.15_PT225H.grib2 2026-04-13 16:57 1.0M
20260413T12Z_MSC_GDPS_WindU_AGL-40m_LatLon0.15_PT225H.grib2 2026-04-13 16:57 1.0M
20260413T12Z_MSC_GDPS_WindU_AGL-80m_LatLon0.15_PT225H.grib2 2026-04-13 16:57 1.0M
20260413T12Z_MSC_GDPS_WindU_IsbL-0001_LatLon0.15_PT225H.grib2 2026-04-13 16:57 634K
20260413T12Z_MSC_GDPS_WindU_IsbL-0005_LatLon0.15_PT225H.grib2 2026-04-13 16:57 679K
20260413T12Z_MSC_GDPS_WindU_IsbL-0500_LatLon0.15_PT225H.grib2 2026-04-13 16:57 1.1M
20260413T12Z_MSC_GDPS_WindU_IsbL-0700_LatLon0.15_PT225H.grib2 2026-04-13 16:57 1.2M
20260413T12Z_MSC_GDPS_WindU_IsbL-0850_LatLon0.15_PT225H.grib2 2026-04-13 16:57 1.4M
20260413T12Z_MSC_GDPS_WindU_IsbL-0925_LatLon0.15_PT225H.grib2 2026-04-13 16:57 1.4M
20260413T12Z_MSC_GDPS_WindU_IsbL-1000_LatLon0.15_PT225H.grib2 2026-04-13 16:57 1.7M
20260413T12Z_MSC_GDPS_WindV_AGL-10m_LatLon0.15_PT225H.grib2 2026-04-13 16:57 1.6M
20260413T12Z_MSC_GDPS_WindV_AGL-120m_LatLon0.15_PT225H.grib2 2026-04-13 16:57 1.0M
20260413T12Z_MSC_GDPS_WindV_AGL-40m_LatLon0.15_PT225H.grib2 2026-04-13 16:57 1.0M
20260413T12Z_MSC_GDPS_WindV_AGL-80m_LatLon0.15_PT225H.grib2 2026-04-13 16:57 1.0M
20260413T12Z_MSC_GDPS_WindV_IsbL-0001_LatLon0.15_PT225H.grib2 2026-04-13 16:57 693K
20260413T12Z_MSC_GDPS_WindV_IsbL-0005_LatLon0.15_PT225H.grib2 2026-04-13 16:57 771K
20260413T12Z_MSC_GDPS_WindV_IsbL-0500_LatLon0.15_PT225H.grib2 2026-04-13 16:57 1.1M
20260413T12Z_MSC_GDPS_WindV_IsbL-0700_LatLon0.15_PT225H.grib2 2026-04-13 16:57 1.2M
20260413T12Z_MSC_GDPS_WindV_IsbL-0850_LatLon0.15_PT225H.grib2 2026-04-13 16:57 1.4M
20260413T12Z_MSC_GDPS_WindV_IsbL-0925_LatLon0.15_PT225H.grib2 2026-04-13 16:57 1.4M
20260413T12Z_MSC_GDPS_WindV_IsbL-1000_LatLon0.15_PT225H.grib2 2026-04-13 16:57 1.4M